Location: Poughquag
(41.6090°N, 73.6820°W)
Time: 02:51:51
(UTC-04:00)

Transit 4A - Pass Details

Date: 06 June 2020
Orbit: 866 x 978 km, 66.8° (Epoch: 06 July)

Event Time Altitude Azimuth Distance (km) Brightness Sun altitude
Rises 11:28:27 0° 314° (NW) 3,597 10.7 64.1°
Reaches altitude 10° 11:31:44 10° 297° (WNW) 2,669 10.2 64.5°
Maximum altitude 11:35:49 19° 256° (WSW) 2,129 9.9 65.1°
Drops below altitude 10° 11:39:58 10° 214° (SW) 2,698 10.5 65.6°
Sets 11:43:20 0° 197° (SSW) 3,652 11.2 66.1°
